Location: ??? ?????
(30.6482°N, 60.5850°E)
Time: 17:55:26
(UTC+00:00)

ARGOS - Pass Details

Date: 09 April 2020
Orbit: 821 x 834 km, 98.5° (Epoch: 06 June)

Event Time Altitude Azimuth Distance (km) Brightness Sun altitude
Exits shadow 15:58:02 16° 174° (S) 2,043 4.9 -20.6°
Maximum altitude 16:02:25 75° 258° (WSW) 857 3.3 -21.5°
Drops below altitude 10° 16:07:48 10° 344° (NNW) 2,429 6.1 -22.6°
Sets 16:10:09 0° 346° (NNW) 3,363 6.9 -23.0°
